Location: *
(51.4660°N, 0.3360°W)
Time: 14:59:23
(UTC+00:00)

Cosmos 1544 Rocket - Pass Details

Date: 19 September 2019
Orbit: 604 x 632 km, 82.5° (Epoch: 17 October)

Event Time Altitude Azimuth Distance (km) Brightness Sun altitude
Exits shadow 20:32:50 21° 200° (SSW) 1,436 5.3 -22.2°
Maximum altitude 20:35:49 72° 282° (WNW) 668 3.8 -22.5°
Drops below altitude 10° 20:40:18 10° 7° (N) 2,023 6.5 -23.1°
Sets 20:42:33 0° 10° (N) 2,932 7.4 -23.4°
